Location: Marcé
(47.5801°N, 0.3280°W)
Time: 18:59:43
(UTC+02:00)

RAPIDEYE 2 - Pass Details

Date: 06 July 2022
Orbit: 570 x 584 km, 97.6° (Epoch: 10 August)

Event Time Altitude Azimuth Distance (km) Brightness Sun altitude
Exits shadow 23:09:29 - 179° (S) 2,207 ? -9.4°
Reaches altitude 10° 23:10:19 10° 181° (S) 1,867 ? -9.5°
Maximum altitude 23:14:17 55° 260° (W) 694 ? -9.9°
Drops below altitude 10° 23:18:18 10° 339° (NNW) 1,886 ? -10.3°
Sets 23:20:30 0° 344° (NNW) 2,790 ? -10.5°
